RYR43MW EVRA-EGPH

Flight info

Callsign RYR43MW
Flight time 2h 42m
Altitude 38000
Route TENSI L73 EVONA DCT VAXIT DCT REKNA DCT ROBEM DCT AGPED
Aircraft B38M/M-SDE1FGHILORVWXY/HB1

Departure

Time 2026-05-03 20:18
Airport Riga International Airport (EVRA)

Arrival

Time 2026-05-03 23:00
Airport Edinburgh Airport (EGPH)
Time Latitude Longitude Altitude Speed Heading
2026-05-03 20:15 56.93021 23.97617 44 ft 12 kts
2026-05-03 20:15 56.93103 23.97630 47 ft 10 kts
2026-05-03 20:15 56.93180 23.97606 47 ft 12 kts 334°
2026-05-03 20:15 56.93268 23.97568 47 ft 14 kts 358°
2026-05-03 20:16 56.93362 23.97581 47 ft 8 kts
2026-05-03 20:16 56.93413 23.97588 47 ft 8 kts 358°
2026-05-03 20:16 56.93467 23.97539 47 ft 10 kts 321°
2026-05-03 20:16 56.93487 23.97423 47 ft 11 kts 268°
2026-05-03 20:17 56.93474 23.97306 44 ft 9 kts 216°
2026-05-03 20:17 56.93408 23.97286 46 ft 11 kts 186°
2026-05-03 20:17 56.93105 23.97236 47 ft 83 kts 185°
2026-05-03 20:17 56.92286 23.97102 46 ft 152 kts 185°
2026-05-03 20:18 56.91101 23.96919 364 ft 179 kts 184°
2026-05-03 20:18 56.89846 23.96734 974 ft 178 kts 188°
2026-05-03 20:18 56.88654 23.96521 1746 ft 170 kts 191°
2026-05-03 20:18 56.87404 23.96277 1997 ft 192 kts 191°
2026-05-03 20:19 56.86005 23.95985 2266 ft 211 kts 195°
2026-05-03 20:19 56.84707 23.94758 2464 ft 221 kts 227°
2026-05-03 20:19 56.83721 23.92638 3052 ft 219 kts 233°
2026-05-03 20:19 56.82757 23.90480 3640 ft 219 kts 234°
2026-05-03 20:20 56.81979 23.88138 4224 ft 215 kts 255°
2026-05-03 20:20 56.81847 23.85424 4771 ft 219 kts 273°
2026-05-03 20:20 56.82075 23.82672 5513 ft 218 kts 277°
2026-05-03 20:20 56.82344 23.79884 5990 ft 231 kts 277°
2026-05-03 20:21 56.82635 23.76912 6411 ft 242 kts 278°
2026-05-03 20:21 56.82937 23.73894 7092 ft 242 kts 278°
2026-05-03 20:21 56.83246 23.70853 7696 ft 245 kts 278°
2026-05-03 20:21 56.83557 23.67807 8287 ft 248 kts 278°
2026-05-03 20:22 56.83877 23.64700 8898 ft 250 kts 278°
2026-05-03 20:22 56.84199 23.61563 9482 ft 253 kts 278°
2026-05-03 20:22 56.84525 23.58388 10016 ft 256 kts 278°
2026-05-03 20:22 56.84860 23.55091 10205 ft 272 kts 278°
2026-05-03 20:23 56.85210 23.51594 10263 ft 291 kts 278°
2026-05-03 20:23 56.85581 23.47867 10409 ft 304 kts 278°
2026-05-03 20:23 56.85963 23.44067 10906 ft 305 kts 278°
2026-05-03 20:23 56.86350 23.40236 11315 ft 308 kts 278°
2026-05-03 20:24 56.86740 23.36374 11756 ft 310 kts 279°
2026-05-03 20:24 56.87127 23.32524 12191 ft 313 kts 279°
2026-05-03 20:24 56.87521 23.28607 12594 ft 315 kts 279°
2026-05-03 20:24 56.87917 23.24653 13000 ft 317 kts 279°
2026-05-03 20:25 56.88314 23.20674 13378 ft 320 kts 279°
2026-05-03 20:25 56.88713 23.16659 13760 ft 322 kts 279°
2026-05-03 20:25 56.89113 23.12617 14093 ft 324 kts 279°
2026-05-03 20:25 56.89512 23.08584 14428 ft 325 kts 279°
2026-05-03 20:26 56.89915 23.04495 14747 ft 327 kts 279°
2026-05-03 20:26 56.90313 23.00445 15071 ft 329 kts 279°
2026-05-03 20:26 56.90717 22.96318 15375 ft 331 kts 279°
2026-05-03 20:26 56.91122 22.92158 15649 ft 333 kts 279°
2026-05-03 20:27 56.91528 22.87975 15931 ft 335 kts 279°
2026-05-03 20:27 56.91933 22.83780 16274 ft 335 kts 279°
2026-05-03 20:27 56.92339 22.79571 16553 ft 336 kts 278°
2026-05-03 20:27 56.92734 22.75346 16831 ft 337 kts 278°
2026-05-03 20:28 56.93118 22.71116 17108 ft 339 kts 279°
2026-05-03 20:28 56.93543 22.66845 17319 ft 341 kts 279°
2026-05-03 20:28 56.93950 22.62651 17580 ft 342 kts 278°
2026-05-03 20:28 56.94361 22.58340 17807 ft 344 kts 278°
2026-05-03 20:29 56.94768 22.54016 18055 ft 345 kts 278°
2026-05-03 20:29 56.95175 22.49676 18278 ft 347 kts 278°
2026-05-03 20:29 56.95583 22.45312 18471 ft 348 kts 278°
2026-05-03 20:29 56.95991 22.40936 18657 ft 349 kts 278°
2026-05-03 20:30 56.96398 22.36545 18843 ft 350 kts 278°
2026-05-03 20:30 56.96801 22.32190 19032 ft 351 kts 278°
2026-05-03 20:30 56.97208 22.27771 19235 ft 352 kts 279°
2026-05-03 20:30 56.97614 22.23336 19412 ft 354 kts 279°
2026-05-03 20:31 56.98018 22.18900 19591 ft 355 kts 278°
2026-05-03 20:31 56.98424 22.14437 19759 ft 356 kts 278°
2026-05-03 20:31 56.98830 22.09946 19932 ft 357 kts 278°
2026-05-03 20:31 56.99235 22.05452 20097 ft 358 kts 278°
2026-05-03 20:32 56.99640 22.00946 20261 ft 359 kts 278°
2026-05-03 20:32 57.00044 21.96424 20410 ft 360 kts 278°
2026-05-03 20:32 57.00443 21.91948 20569 ft 361 kts 278°
2026-05-03 20:32 57.00846 21.87399 20714 ft 362 kts 278°
2026-05-03 20:33 57.01248 21.82841 20863 ft 363 kts 278°
2026-05-03 20:33 57.01650 21.78268 20997 ft 364 kts 278°
2026-05-03 20:33 57.02051 21.73677 21136 ft 364 kts 278°
2026-05-03 20:33 57.02450 21.69099 21284 ft 365 kts 278°
2026-05-03 20:34 57.02850 21.64494 21430 ft 366 kts 278°
2026-05-03 20:34 57.03248 21.59878 21542 ft 367 kts 278°
2026-05-03 20:34 57.03647 21.55239 21666 ft 368 kts 278°
2026-05-03 20:34 57.04043 21.50603 21788 ft 368 kts 278°
2026-05-03 20:35 57.04439 21.45949 21900 ft 369 kts 278°
2026-05-03 20:35 57.04829 21.41345 22013 ft 370 kts 278°
2026-05-03 20:35 57.05224 21.36671 22126 ft 371 kts 278°
2026-05-03 20:35 57.05618 21.31984 22234 ft 371 kts 278°
2026-05-03 20:36 57.06008 21.27316 22337 ft 372 kts 278°
2026-05-03 20:36 57.06400 21.22611 22434 ft 373 kts 278°
2026-05-03 20:36 57.06790 21.17897 22535 ft 374 kts 278°
2026-05-03 20:36 57.07180 21.13169 22635 ft 374 kts 278°
2026-05-03 20:37 57.07569 21.08442 22745 ft 375 kts 278°
2026-05-03 20:37 57.07945 21.03834 22831 ft 376 kts 278°
2026-05-03 20:37 57.08331 20.99078 22907 ft 376 kts 278°
2026-05-03 20:37 57.08715 20.94320 22993 ft 377 kts 277°
2026-05-03 20:38 57.09099 20.89556 23073 ft 377 kts 277°
2026-05-03 20:38 57.09482 20.84780 23165 ft 378 kts 277°
2026-05-03 20:38 57.09861 20.80022 23241 ft 378 kts 277°
2026-05-03 20:38 57.10241 20.75221 23315 ft 379 kts 277°
2026-05-03 20:39 57.10619 20.70435 23389 ft 379 kts 277°
2026-05-03 20:39 57.10991 20.65692 23456 ft 380 kts 277°
2026-05-03 20:39 57.11367 20.60873 23523 ft 380 kts 277°
2026-05-03 20:39 57.11742 20.56057 23589 ft 381 kts 277°
2026-05-03 20:40 57.12115 20.51236 23663 ft 381 kts 277°
2026-05-03 20:40 57.12484 20.46421 23724 ft 378 kts 276°
2026-05-03 20:40 57.12841 20.41690 23835 ft 368 kts 276°
2026-05-03 20:40 57.13190 20.37111 23961 ft 358 kts 276°
2026-05-03 20:41 57.13530 20.32627 24097 ft 349 kts 276°
2026-05-03 20:41 57.13855 20.28318 24220 ft 340 kts 276°
2026-05-03 20:41 57.14176 20.24042 24371 ft 337 kts 276°
2026-05-03 20:41 57.14497 20.19766 24522 ft 337 kts 276°
2026-05-03 20:42 57.14819 20.15486 24675 ft 337 kts 277°
2026-05-03 20:42 57.15136 20.11209 24827 ft 338 kts 277°
2026-05-03 20:42 57.15452 20.06917 24981 ft 338 kts 277°
2026-05-03 20:42 57.15766 20.02622 25133 ft 339 kts 277°
2026-05-03 20:43 57.16080 19.98322 25288 ft 339 kts 277°
2026-05-03 20:43 57.16391 19.94064 25442 ft 340 kts 278°
2026-05-03 20:43 57.16963 19.89867 25619 ft 340 kts 283°
2026-05-03 20:43 57.17231 19.85572 25719 ft 337 kts 265°
2026-05-03 20:44 57.16962 19.81292 25929 ft 337 kts 266°
2026-05-03 20:44 57.16854 19.76962 26077 ft 338 kts 268°
2026-05-03 20:44 57.16822 19.72626 26237 ft 338 kts 269°
2026-05-03 20:44 57.16835 19.68299 26394 ft 338 kts 270°
2026-05-03 20:45 57.16871 19.63974 26549 ft 337 kts 270°
2026-05-03 20:45 57.16918 19.59658 26717 ft 337 kts 271°
2026-05-03 20:45 57.16973 19.55352 26863 ft 336 kts 271°
2026-05-03 20:45 57.17031 19.51105 27029 ft 335 kts 271°
2026-05-03 20:46 57.17092 19.46821 27190 ft 335 kts 271°
2026-05-03 20:46 57.17152 19.42549 27351 ft 334 kts 271°
2026-05-03 20:46 57.17210 19.38286 27514 ft 333 kts 271°
2026-05-03 20:46 57.17267 19.34017 27677 ft 333 kts 271°
2026-05-03 20:47 57.17324 19.29757 27861 ft 332 kts 270°
2026-05-03 20:47 57.17379 19.25529 28029 ft 329 kts 270°
2026-05-03 20:47 57.17430 19.21318 28194 ft 328 kts 270°
2026-05-03 20:47 57.17481 19.17122 28353 ft 327 kts 270°
2026-05-03 20:48 57.17531 19.12932 28528 ft 327 kts 270°
2026-05-03 20:48 57.17579 19.08746 28698 ft 326 kts 270°
2026-05-03 20:48 57.17624 19.04628 28862 ft 326 kts 270°
2026-05-03 20:48 57.17669 19.00456 29030 ft 325 kts 270°
2026-05-03 20:49 57.17713 18.96319 29199 ft 324 kts 270°
2026-05-03 20:49 57.17755 18.92161 29370 ft 324 kts 270°
2026-05-03 20:49 57.17796 18.87967 29396 ft 333 kts 270°
2026-05-03 20:49 57.17837 18.83628 29372 ft 345 kts 270°
2026-05-03 20:50 57.17878 18.79139 29404 ft 356 kts 270°
2026-05-03 20:50 57.17918 18.74513 29426 ft 367 kts 270°
2026-05-03 20:50 57.17959 18.69750 29467 ft 377 kts 270°
2026-05-03 20:51 57.18036 18.59904 29546 ft 397 kts 270°
2026-05-03 20:51 57.18073 18.54776 29752 ft 401 kts 270°
2026-05-03 20:51 57.18108 18.49652 30133 ft 402 kts 270°
2026-05-03 20:51 57.18141 18.44481 30433 ft 404 kts 270°
2026-05-03 20:52 57.18172 18.39291 30773 ft 405 kts 270°
2026-05-03 20:52 57.18201 18.34086 31096 ft 407 kts 270°
2026-05-03 20:52 57.18228 18.28878 31428 ft 407 kts 270°
2026-05-03 20:52 57.18252 18.23659 31863 ft 406 kts 270°
2026-05-03 20:53 57.18275 18.18546 32337 ft 403 kts 269°
2026-05-03 20:53 57.18294 18.13404 32811 ft 400 kts 270°
2026-05-03 20:53 57.18312 18.08282 33291 ft 398 kts 269°
2026-05-03 20:53 57.18329 18.03230 33769 ft 395 kts 269°
2026-05-03 20:54 57.18342 17.98165 34098 ft 394 kts 269°
2026-05-03 20:54 57.18363 17.87962 34450 ft 400 kts 269°
2026-05-03 20:54 57.18370 17.82833 34742 ft 400 kts 269°
2026-05-03 20:55 57.18376 17.77688 35013 ft 401 kts 269°
2026-05-03 20:55 57.18379 17.72555 35293 ft 401 kts 269°
2026-05-03 20:55 57.18381 17.67413 35571 ft 401 kts 269°
2026-05-03 20:55 57.18380 17.62344 35817 ft 402 kts 269°
2026-05-03 20:56 57.18372 17.52064 35856 ft 400 kts 269°
2026-05-03 20:56 57.18356 17.41817 35863 ft 400 kts 269°
2026-05-03 20:57 57.18332 17.31563 35865 ft 400 kts 269°
2026-05-03 20:57 57.18299 17.21376 35865 ft 400 kts 268°
2026-05-03 20:58 57.18258 17.11147 35865 ft 400 kts 268°
2026-05-03 20:58 57.18208 17.00888 35868 ft 400 kts 268°
2026-05-03 20:59 57.18150 16.90614 36151 ft 401 kts 268°
2026-05-03 20:59 57.18118 16.85487 36398 ft 401 kts 268°
2026-05-03 20:59 57.18084 16.80334 36677 ft 401 kts 268°
2026-05-03 21:00 57.18047 16.75185 36901 ft 402 kts 268°
2026-05-03 21:00 57.18022 16.71777 37061 ft 402 kts 268°
2026-05-03 21:00 57.17969 16.64977 37382 ft 402 kts 268°
2026-05-03 21:00 57.17926 16.59841 37617 ft 402 kts 268°
2026-05-03 21:01 57.17881 16.54694 37842 ft 401 kts 268°
2026-05-03 21:01 57.17835 16.49548 37889 ft 402 kts 268°
2026-05-03 21:01 57.17735 16.39263 37869 ft 400 kts 268°
2026-05-03 21:02 57.17626 16.29002 37866 ft 401 kts 268°
2026-05-03 21:02 57.17511 16.18831 37881 ft 401 kts 268°
2026-05-03 21:03 57.17386 16.08527 37871 ft 403 kts 268°
2026-05-03 21:03 57.17251 15.98199 37858 ft 403 kts 268°
2026-05-03 21:04 57.17109 15.87880 37867 ft 404 kts 267°
2026-05-03 21:04 57.16958 15.77598 37861 ft 403 kts 267°
2026-05-03 21:05 57.16799 15.67290 37868 ft 403 kts 267°
2026-05-03 21:05 57.16631 15.56960 37894 ft 403 kts 267°
2026-05-03 21:06 57.16454 15.46640 37868 ft 403 kts 267°
2026-05-03 21:06 57.16269 15.36319 37867 ft 403 kts 267°
2026-05-03 21:07 57.16078 15.26100 37869 ft 403 kts 267°
2026-05-03 21:07 57.15876 15.15786 37869 ft 403 kts 266°
2026-05-03 21:08 57.15666 15.05465 37869 ft 403 kts 266°
2026-05-03 21:08 57.15447 14.95154 37879 ft 403 kts 266°
2026-05-03 21:09 57.15221 14.84882 37871 ft 406 kts 266°
2026-05-03 21:09 57.14984 14.74515 37864 ft 406 kts 266°
2026-05-03 21:10 57.14738 14.64140 37871 ft 406 kts 266°
2026-05-03 21:10 57.14482 14.53757 37866 ft 406 kts 266°
2026-05-03 21:11 57.14219 14.43387 37862 ft 406 kts 266°
2026-05-03 21:11 57.13950 14.33105 37893 ft 406 kts 265°
2026-05-03 21:12 57.13670 14.22701 37860 ft 407 kts 265°
2026-05-03 21:12 57.13380 14.12281 37855 ft 408 kts 265°
2026-05-03 21:13 57.13081 14.01850 37857 ft 408 kts 265°
2026-05-03 21:13 57.12776 13.91504 37863 ft 409 kts 265°
2026-05-03 21:14 57.12459 13.81066 37864 ft 409 kts 265°
2026-05-03 21:14 57.12134 13.70628 37893 ft 409 kts 265°
2026-05-03 21:15 57.11801 13.60193 37864 ft 408 kts 265°
2026-05-03 21:15 57.11459 13.49771 37875 ft 408 kts 265°
2026-05-03 21:16 57.11111 13.39440 37871 ft 408 kts 265°
2026-05-03 21:16 57.10751 13.29019 37865 ft 408 kts 265°
2026-05-03 21:17 57.10446 13.20349 37859 ft 408 kts 265°
2026-05-03 21:17 57.10007 13.08184 37881 ft 408 kts 265°
2026-05-03 21:18 57.09623 12.97819 37858 ft 406 kts 264°
2026-05-03 21:18 57.09234 12.87532 37863 ft 406 kts 264°
2026-05-03 21:19 57.08834 12.77165 37861 ft 406 kts 264°
2026-05-03 21:19 57.08425 12.66805 37865 ft 406 kts 264°
2026-05-03 21:20 57.08007 12.56451 37858 ft 406 kts 264°
2026-05-03 21:20 57.07585 12.46195 37875 ft 406 kts 264°
2026-05-03 21:21 57.07151 12.35853 37853 ft 406 kts 264°
2026-05-03 21:21 57.06708 12.25505 37857 ft 406 kts 264°
2026-05-03 21:22 57.06257 12.15168 37830 ft 406 kts 264°
2026-05-03 21:22 57.05800 12.04910 37849 ft 407 kts 264°
2026-05-03 21:23 57.05331 11.94560 37851 ft 406 kts 264°
2026-05-03 21:23 57.04854 11.84215 37869 ft 407 kts 263°
2026-05-03 21:24 57.04367 11.73849 37850 ft 408 kts 263°
2026-05-03 21:24 57.03874 11.63545 37848 ft 408 kts 263°
2026-05-03 21:25 57.03371 11.53207 37849 ft 407 kts 263°
2026-05-03 21:25 57.02859 11.42851 37848 ft 407 kts 263°
2026-05-03 21:26 57.02337 11.32496 37848 ft 408 kts 263°
2026-05-03 21:26 57.01811 11.22209 37848 ft 408 kts 263°
2026-05-03 21:27 57.01274 11.11880 37848 ft 407 kts 263°
2026-05-03 21:27 57.00727 11.01533 37848 ft 407 kts 263°
2026-05-03 21:28 57.00172 10.91186 37848 ft 407 kts 262°
2026-05-03 21:28 56.99608 10.80847 37848 ft 407 kts 262°
2026-05-03 21:29 56.99041 10.70600 37849 ft 407 kts 262°
2026-05-03 21:29 56.98460 10.60261 37863 ft 408 kts 262°
2026-05-03 21:30 56.97868 10.49887 37854 ft 410 kts 262°
2026-05-03 21:30 56.97267 10.39507 37853 ft 409 kts 262°
2026-05-03 21:31 56.96662 10.29200 37850 ft 409 kts 262°
2026-05-03 21:31 56.96045 10.18845 37828 ft 409 kts 262°
2026-05-03 21:32 56.95418 10.08470 37855 ft 410 kts 262°
2026-05-03 21:32 56.94782 9.98083 37862 ft 411 kts 262°
2026-05-03 21:33 56.94135 9.87681 37856 ft 411 kts 262°
2026-05-03 21:33 56.93486 9.77368 37855 ft 411 kts 262°
2026-05-03 21:34 56.92820 9.66970 37858 ft 411 kts 261°
2026-05-03 21:34 56.92148 9.56576 37860 ft 411 kts 261°
2026-05-03 21:35 56.91471 9.46253 37858 ft 411 kts 261°
2026-05-03 21:35 56.90782 9.35862 37867 ft 412 kts 261°
2026-05-03 21:36 56.90082 9.25457 37859 ft 413 kts 261°
2026-05-03 21:36 56.89373 9.15039 37869 ft 413 kts 261°
2026-05-03 21:37 56.88655 9.04625 37866 ft 413 kts 261°
2026-05-03 21:37 56.87932 8.94274 37867 ft 413 kts 261°
2026-05-03 21:38 56.87198 8.83888 37869 ft 413 kts 260°
2026-05-03 21:38 56.86453 8.73463 37872 ft 415 kts 260°
2026-05-03 21:39 56.85696 8.63002 37872 ft 416 kts 260°
2026-05-03 21:39 56.84929 8.52538 37873 ft 415 kts 260°
2026-05-03 21:40 56.84161 8.42177 37879 ft 415 kts 260°
2026-05-03 21:40 56.83378 8.31725 37865 ft 415 kts 260°
2026-05-03 21:41 56.82585 8.21266 37878 ft 416 kts 259°
2026-05-03 21:41 56.81781 8.10793 37885 ft 418 kts 260°
2026-05-03 21:42 56.80971 8.00342 37878 ft 418 kts 259°
2026-05-03 21:42 56.80149 7.89864 37884 ft 418 kts 259°
2026-05-03 21:43 56.79315 7.79358 37884 ft 418 kts 259°
2026-05-03 21:43 56.78474 7.68865 37889 ft 418 kts 259°
2026-05-03 21:44 56.77629 7.58440 37911 ft 419 kts 259°
2026-05-03 21:44 56.76768 7.47928 37895 ft 421 kts 259°
2026-05-03 21:45 56.75894 7.37382 37892 ft 421 kts 259°
2026-05-03 21:45 56.75011 7.26834 37892 ft 421 kts 259°
2026-05-03 21:46 56.74125 7.16362 37898 ft 421 kts 259°
2026-05-03 21:46 56.73227 7.05849 37897 ft 421 kts 259°
2026-05-03 21:47 56.72318 6.95319 37916 ft 421 kts 259°
2026-05-03 21:47 56.71399 6.84790 37906 ft 421 kts 259°
2026-05-03 21:48 56.70478 6.74336 37907 ft 421 kts 259°
2026-05-03 21:48 56.69541 6.63816 37908 ft 421 kts 259°
2026-05-03 21:49 56.68598 6.53320 37908 ft 421 kts 259°
2026-05-03 21:49 56.67646 6.42808 37906 ft 421 kts 259°
2026-05-03 21:50 56.66685 6.32282 37920 ft 423 kts 259°
2026-05-03 21:50 56.65720 6.21814 37922 ft 423 kts 259°
2026-05-03 21:51 56.64744 6.11308 37924 ft 423 kts 259°
2026-05-03 21:51 56.63757 6.00786 37925 ft 423 kts 258°
2026-05-03 21:52 56.62761 5.90263 37931 ft 423 kts 258°
2026-05-03 21:52 56.61763 5.79815 37938 ft 423 kts 258°
2026-05-03 21:53 56.60750 5.69293 37941 ft 425 kts 258°
2026-05-03 21:53 56.59722 5.58722 37932 ft 425 kts 258°
2026-05-03 21:54 56.58687 5.48157 37932 ft 425 kts 258°
2026-05-03 21:54 56.57643 5.37600 37933 ft 425 kts 258°
2026-05-03 21:55 56.56600 5.27138 37939 ft 425 kts 258°
2026-05-03 21:55 56.55539 5.16594 37938 ft 425 kts 258°
2026-05-03 21:56 56.54468 5.06057 37943 ft 425 kts 258°
2026-05-03 21:56 56.52787 4.95887 37968 ft 421 kts 244°
2026-05-03 21:57 56.50495 4.86157 37958 ft 423 kts 246°
2026-05-03 21:57 56.48199 4.76369 37925 ft 423 kts 246°
2026-05-03 21:58 56.45883 4.66582 37948 ft 423 kts 246°
2026-05-03 21:58 56.43557 4.56798 37959 ft 424 kts 246°
2026-05-03 21:59 56.41219 4.47008 37949 ft 425 kts 246°
2026-05-03 21:59 56.38894 4.37315 37953 ft 425 kts 246°
2026-05-03 22:00 56.36540 4.27546 37959 ft 424 kts 246°
2026-05-03 22:00 56.34181 4.17797 37957 ft 424 kts 246°
2026-05-03 22:01 56.31827 4.08111 37960 ft 425 kts 246°
2026-05-03 22:01 56.29458 3.98411 37971 ft 425 kts 246°
2026-05-03 22:02 56.27062 3.88645 37955 ft 427 kts 246°
2026-05-03 22:02 56.24659 3.78894 37939 ft 426 kts 246°
2026-05-03 22:03 56.22249 3.69155 37953 ft 427 kts 246°
2026-05-03 22:03 56.19852 3.59507 37938 ft 426 kts 245°
2026-05-03 22:04 56.17485 3.49748 37931 ft 427 kts 252°
2026-05-03 22:04 56.16041 3.39411 37940 ft 428 kts 255°
2026-05-03 22:05 56.14581 3.29038 37944 ft 430 kts 255°
2026-05-03 22:05 56.13136 3.18705 37961 ft 430 kts 255°
2026-05-03 22:06 56.11679 3.08346 37957 ft 430 kts 255°
2026-05-03 22:06 56.10209 2.97962 37957 ft 430 kts 255°
2026-05-03 22:07 56.08735 2.87584 37951 ft 429 kts 267°
2026-05-03 22:07 56.08747 2.82366 36280 ft 407 kts 270°
2026-05-03 22:07 56.08684 2.78611 25865 ft 311 kts 219°
2026-05-03 22:08 56.05942 2.75028 22453 ft 503 kts 217°
2026-05-03 22:08 56.03460 2.71542 24284 ft 415 kts 221°
2026-05-03 22:08 56.01561 2.68465 25715 ft 334 kts 226°
2026-05-03 22:08 56.00234 2.65407 25918 ft 298 kts 244°
2026-05-03 22:09 55.99726 2.61906 25921 ft 292 kts 266°
2026-05-03 22:09 55.99812 2.58310 25950 ft 289 kts 274°
2026-05-03 22:09 56.00105 2.54755 26052 ft 291 kts 278°
2026-05-03 22:10 56.00971 2.47661 25765 ft 290 kts 278°
2026-05-03 22:10 56.01297 2.44092 25112 ft 303 kts 275°
2026-05-03 22:10 56.01332 2.40273 24632 ft 310 kts 263°
2026-05-03 22:10 56.01044 2.36359 24473 ft 326 kts 260°
2026-05-03 22:11 56.00576 2.32286 24240 ft 342 kts 256°
2026-05-03 22:11 56.00004 2.28077 24040 ft 360 kts 256°
2026-05-03 22:11 55.99379 2.23664 24141 ft 374 kts 255°
2026-05-03 22:11 55.98713 2.19081 24284 ft 387 kts 255°
2026-05-03 22:12 55.98019 2.14396 24673 ft 391 kts 255°
2026-05-03 22:12 55.97316 2.09699 25183 ft 393 kts 255°
2026-05-03 22:12 55.96616 2.05040 25660 ft 395 kts 255°
2026-05-03 22:12 55.95901 2.00296 26154 ft 397 kts 255°
2026-05-03 22:13 55.95181 1.95537 26637 ft 399 kts 255°
2026-05-03 22:13 55.94455 1.90754 27108 ft 400 kts 255°
2026-05-03 22:13 55.93727 1.85963 27593 ft 402 kts 255°
2026-05-03 22:13 55.92991 1.81140 27952 ft 405 kts 255°
2026-05-03 22:14 55.92249 1.76293 28004 ft 404 kts 255°
2026-05-03 22:14 55.91510 1.71475 27989 ft 403 kts 255°
2026-05-03 22:14 55.90779 1.66721 27997 ft 403 kts 255°
2026-05-03 22:14 55.90033 1.61895 27992 ft 404 kts 255°
2026-05-03 22:15 55.89285 1.57066 27991 ft 404 kts 255°
2026-05-03 22:15 55.88536 1.52242 27993 ft 404 kts 255°
2026-05-03 22:15 55.87785 1.47420 27992 ft 404 kts 255°
2026-05-03 22:15 55.87036 1.42619 27994 ft 404 kts 255°
2026-05-03 22:16 55.86282 1.37803 27997 ft 404 kts 254°
2026-05-03 22:16 55.85525 1.32985 27996 ft 404 kts 254°
2026-05-03 22:16 55.84766 1.28167 27996 ft 404 kts 254°
2026-05-03 22:16 55.84015 1.23414 27996 ft 404 kts 254°
2026-05-03 22:17 55.83254 1.18609 27996 ft 404 kts 254°
2026-05-03 22:17 55.82489 1.13795 27996 ft 404 kts 254°
2026-05-03 22:17 55.81724 1.08987 27998 ft 405 kts 255°
2026-05-03 22:17 55.80954 1.04172 27999 ft 405 kts 255°
2026-05-03 22:18 55.80186 0.99377 27999 ft 405 kts 254°
2026-05-03 22:18 55.79413 0.94569 27999 ft 405 kts 254°
2026-05-03 22:18 55.78638 0.89758 28002 ft 405 kts 254°
2026-05-03 22:18 55.77861 0.84951 27991 ft 405 kts 254°
2026-05-03 22:19 55.77092 0.80209 27999 ft 405 kts 254°
2026-05-03 22:19 55.75542 0.70589 27953 ft 404 kts 254°
2026-05-03 22:20 55.73958 0.60988 28006 ft 405 kts 254°
2026-05-03 22:20 55.72382 0.51407 28003 ft 407 kts 254°
2026-05-03 22:21 55.70786 0.41772 28008 ft 408 kts 254°
2026-05-03 22:21 55.69193 0.32196 28008 ft 407 kts 254°
2026-05-03 22:22 55.67583 0.22571 28005 ft 407 kts 254°
2026-05-03 22:22 55.65968 0.12971 28006 ft 407 kts 254°
2026-05-03 22:23 55.64343 0.03362 28007 ft 407 kts 254°
2026-05-03 22:23 55.62720 -0.06190 28008 ft 409 kts 254°
2026-05-03 22:24 55.61073 -0.15817 28005 ft 409 kts 254°
2026-05-03 22:24 55.59420 -0.25433 28006 ft 409 kts 254°
2026-05-03 22:25 55.57758 -0.35044 28007 ft 409 kts 253°
2026-05-03 22:25 55.56100 -0.44588 28013 ft 409 kts 253°
2026-05-03 22:26 55.54424 -0.54185 28011 ft 409 kts 253°
2026-05-03 22:26 55.52740 -0.63782 28013 ft 409 kts 253°
2026-05-03 22:27 55.51058 -0.73333 28010 ft 408 kts 253°
2026-05-03 22:27 55.49650 -0.81285 28013 ft 408 kts 253°
2026-05-03 22:28 55.47675 -0.92393 28018 ft 408 kts 253°
2026-05-03 22:28 55.45904 -1.01890 28001 ft 408 kts 245°
2026-05-03 22:29 55.43444 -1.08987 28007 ft 409 kts 239°
2026-05-03 22:29 55.40415 -1.17475 28014 ft 412 kts 239°
2026-05-03 22:30 55.36854 -1.27380 28018 ft 412 kts 239°
2026-05-03 22:30 55.34301 -1.34459 28018 ft 412 kts 239°
2026-05-03 22:31 55.31228 -1.42955 28023 ft 412 kts 239°
2026-05-03 22:31 55.28149 -1.51434 28022 ft 413 kts 239°
2026-05-03 22:32 55.24560 -1.61286 28020 ft 412 kts 238°
2026-05-03 22:32 55.22014 -1.68254 28022 ft 395 kts 239°
2026-05-03 22:33 55.19097 -1.76219 28013 ft 389 kts 239°
2026-05-03 22:33 55.16178 -1.84162 28020 ft 389 kts 239°
2026-05-03 22:34 55.13948 -1.92622 27448 ft 389 kts 261°
2026-05-03 22:34 55.13858 -1.97388 26438 ft 398 kts 278°
2026-05-03 22:34 55.14555 -2.02105 25497 ft 405 kts 293°
2026-05-03 22:34 55.15956 -2.06412 24577 ft 413 kts 307°
2026-05-03 22:35 55.17650 -2.10421 23668 ft 418 kts 301°
2026-05-03 22:35 55.18992 -2.14959 22723 ft 421 kts 298°
2026-05-03 22:35 55.20371 -2.19450 22135 ft 416 kts 299°
2026-05-03 22:35 55.21762 -2.23845 21635 ft 409 kts 300°
2026-05-03 22:36 55.23133 -2.28123 21126 ft 403 kts 300°
2026-05-03 22:36 55.24507 -2.32373 20615 ft 398 kts 300°
2026-05-03 22:36 55.25869 -2.36570 20093 ft 394 kts 300°
2026-05-03 22:36 55.27221 -2.40732 19579 ft 391 kts 300°
2026-05-03 22:37 55.28537 -2.44787 19226 ft 383 kts 300°
2026-05-03 22:37 55.29828 -2.48774 19222 ft 367 kts 300°
2026-05-03 22:37 55.31054 -2.52565 19230 ft 351 kts 300°
2026-05-03 22:37 55.32256 -2.56278 18202 ft 364 kts 300°
2026-05-03 22:38 55.33524 -2.60218 17289 ft 375 kts 300°
2026-05-03 22:38 55.34811 -2.64213 16650 ft 377 kts 300°
2026-05-03 22:38 55.36094 -2.68208 16144 ft 374 kts 300°
2026-05-03 22:38 55.37369 -2.72181 15666 ft 371 kts 300°
2026-05-03 22:39 55.38629 -2.76116 15166 ft 368 kts 300°
2026-05-03 22:39 55.39880 -2.80024 14690 ft 365 kts 300°
2026-05-03 22:39 55.41101 -2.83852 14231 ft 362 kts 300°
2026-05-03 22:39 55.42330 -2.87707 13752 ft 360 kts 300°
2026-05-03 22:40 55.43540 -2.91511 13243 ft 349 kts 300°
2026-05-03 22:40 55.44686 -2.95115 13115 ft 324 kts 300°
2026-05-03 22:40 55.45880 -2.98261 13111 ft 299 kts 316°
2026-05-03 22:40 55.47598 -3.00216 13112 ft 294 kts 340°
2026-05-03 22:41 55.49536 -3.01347 13109 ft 296 kts 341°
2026-05-03 22:41 55.51489 -3.02497 13146 ft 296 kts 341°
2026-05-03 22:41 55.53452 -3.03628 13133 ft 297 kts 341°
2026-05-03 22:41 55.55391 -3.04728 13123 ft 296 kts 342°
2026-05-03 22:42 55.57356 -3.05832 13135 ft 297 kts 342°
2026-05-03 22:42 55.59321 -3.06930 13115 ft 297 kts 342°
2026-05-03 22:42 55.61292 -3.08027 13111 ft 296 kts 342°
2026-05-03 22:42 55.63260 -3.09116 13131 ft 297 kts 342°
2026-05-03 22:43 55.65230 -3.10183 13128 ft 296 kts 342°
2026-05-03 22:43 55.67087 -3.11702 13092 ft 294 kts 322°
2026-05-03 22:43 55.68432 -3.14393 13100 ft 293 kts 298°
2026-05-03 22:43 55.69026 -3.17831 13137 ft 295 kts 275°
2026-05-03 22:44 55.68980 -3.21467 13140 ft 296 kts 267°
2026-05-03 22:44 55.68809 -3.25056 13128 ft 296 kts 266°
2026-05-03 22:44 55.68628 -3.28664 13119 ft 296 kts 266°
2026-05-03 22:44 55.68446 -3.32293 13121 ft 296 kts 266°
2026-05-03 22:45 55.68261 -3.35927 13101 ft 296 kts 266°
2026-05-03 22:45 55.68077 -3.39551 13119 ft 296 kts 266°
2026-05-03 22:45 55.67890 -3.43189 13115 ft 296 kts 266°
2026-05-03 22:45 55.67703 -3.46812 13124 ft 296 kts 266°
2026-05-03 22:46 55.67515 -3.50464 12794 ft 300 kts 266°
2026-05-03 22:46 55.67114 -3.54150 12030 ft 313 kts 252°
2026-05-03 22:46 55.66151 -3.57622 11336 ft 323 kts 242°
2026-05-03 22:46 55.64979 -3.61066 10724 ft 329 kts 240°
2026-05-03 22:47 55.63778 -3.64530 10175 ft 331 kts 240°
2026-05-03 22:47 55.62568 -3.68013 9627 ft 333 kts 240°
2026-05-03 22:47 55.61359 -3.71490 9045 ft 334 kts 240°
2026-05-03 22:47 55.60139 -3.75007 8477 ft 336 kts 240°
2026-05-03 22:48 55.58973 -3.78552 8049 ft 331 kts 248°
2026-05-03 22:48 55.58362 -3.82427 7646 ft 326 kts 266°
2026-05-03 22:48 55.58481 -3.86377 7246 ft 320 kts 284°
2026-05-03 22:48 55.59289 -3.89938 6861 ft 316 kts 303°
2026-05-03 22:49 55.60710 -3.92840 6459 ft 312 kts 322°
2026-05-03 22:49 55.62522 -3.94898 6047 ft 309 kts 332°
2026-05-03 22:49 55.64393 -3.96731 5643 ft 306 kts 332°
2026-05-03 22:49 55.66253 -3.98543 5239 ft 304 kts 332°
2026-05-03 22:50 55.68130 -4.00136 4943 ft 294 kts 347°
2026-05-03 22:50 55.70066 -4.00044 4830 ft 271 kts 20°
2026-05-03 22:50 55.71498 -3.98158 4743 ft 251 kts 56°
2026-05-03 22:50 55.72138 -3.95410 4360 ft 245 kts 71°
2026-05-03 22:51 55.72664 -3.92623 4164 ft 230 kts 66°
2026-05-03 22:51 55.73458 -3.90406 4158 ft 200 kts 46°
2026-05-03 22:51 55.74415 -3.88786 3920 ft 179 kts 43°
2026-05-03 22:51 55.75267 -3.87358 3747 ft 159 kts 43°
2026-05-03 22:52 55.76057 -3.86120 3741 ft 149 kts 40°
2026-05-03 22:52 55.76828 -3.84878 3864 ft 150 kts 42°
2026-05-03 22:52 55.77590 -3.83603 3996 ft 151 kts 43°
2026-05-03 22:52 55.78342 -3.82307 4070 ft 151 kts 43°
2026-05-03 22:53 55.79078 -3.81012 4079 ft 151 kts 44°
2026-05-03 22:53 55.79815 -3.79691 4065 ft 151 kts 44°
2026-05-03 22:53 55.80551 -3.78357 4065 ft 151 kts 45°
2026-05-03 22:53 55.81278 -3.77021 4067 ft 151 kts 46°
2026-05-03 22:54 55.81876 -3.75511 4061 ft 152 kts 57°
2026-05-03 22:54 55.82432 -3.73915 4040 ft 152 kts 57°
2026-05-03 22:54 55.82989 -3.72322 4048 ft 152 kts 57°
2026-05-03 22:54 55.83548 -3.70731 4051 ft 152 kts 57°
2026-05-03 22:55 55.84107 -3.69137 4040 ft 152 kts 57°
2026-05-03 22:55 55.84656 -3.67529 3894 ft 152 kts 57°
2026-05-03 22:55 55.85197 -3.65948 3661 ft 151 kts 57°
2026-05-03 22:55 55.85748 -3.64368 3426 ft 150 kts 57°
2026-05-03 22:56 55.86300 -3.62788 3225 ft 150 kts 56°
2026-05-03 22:56 55.86854 -3.61217 3041 ft 151 kts 57°
2026-05-03 22:56 55.87403 -3.59632 2859 ft 150 kts 58°
2026-05-03 22:56 55.87939 -3.58066 2667 ft 150 kts 58°
2026-05-03 22:57 55.88480 -3.56478 2476 ft 150 kts 58°
2026-05-03 22:57 55.89020 -3.54890 2274 ft 149 kts 59°
2026-05-03 22:57 55.89545 -3.53343 2084 ft 144 kts 59°
2026-05-03 22:57 55.90057 -3.51821 1894 ft 142 kts 61°
2026-05-03 22:58 55.90564 -3.50304 1742 ft 143 kts 59°
2026-05-03 22:58 55.91068 -3.48812 1570 ft 142 kts 60°
2026-05-03 22:58 55.91580 -3.47285 1175 ft 146 kts 59°
2026-05-03 22:58 55.92110 -3.45743 917 ft 146 kts 59°
2026-05-03 22:59 55.92639 -3.44198 796 ft 147 kts 59°
2026-05-03 22:59 55.93174 -3.42645 644 ft 147 kts 59°
2026-05-03 22:59 55.93699 -3.41085 453 ft 152 kts 59°
2026-05-03 22:59 55.94253 -3.39470 258 ft 157 kts 60°
2026-05-03 23:00 55.94775 -3.37935 121 ft 154 kts 59°
2026-05-03 23:00 55.95265 -3.36494 114 ft 124 kts 54°
2026-05-03 23:00 55.95523 -3.35717 113 ft 25 kts 53°
2026-05-03 23:00 55.95571 -3.35540 115 ft 11 kts 107°
2026-05-03 23:01 55.95537 -3.35482 116 ft 6 kts 148°
2026-05-03 23:01 55.95506 -3.35447 116 ft 6 kts 148°
2026-05-03 23:01 55.95463 -3.35405 115 ft 8 kts 161°
2026-05-03 23:01 55.95417 -3.35449 115 ft 9 kts 240°
2026-05-03 23:02 55.95378 -3.35555 115 ft 11 kts 234°
2026-05-03 23:02 55.95331 -3.35690 116 ft 14 kts 240°
2026-05-03 23:02 55.95289 -3.35816 118 ft 8 kts 226°
2026-05-03 23:02 55.95232 -3.35801 117 ft 10 kts 140°
2026-05-03 23:03 55.95190 -3.35683 116 ft 13 kts 119°
2026-05-03 23:03 55.95143 -3.35528 118 ft 16 kts 119°
2026-05-03 23:03 55.95098 -3.35364 115 ft 14 kts 112°
2026-05-03 23:03 55.95042 -3.35353 118 ft 9 kts 209°
2026-05-03 23:04 55.94981 -3.35420 119 ft 11 kts 237°
2026-05-03 23:04 55.94999 -3.35508 117 ft 8 kts 305°
2026-05-03 23:04 55.95031 -3.35615 117 ft 11 kts 298°
2026-05-03 23:04 55.95060 -3.35746 118 ft 11 kts 261°
2026-05-03 23:05 55.95003 -3.35841 117 ft 8 kts 208°
2026-05-03 23:05 55.94944 -3.35854 119 ft 10 kts 162°
2026-05-03 23:05 55.94910 -3.35783 119 ft 3 kts 115°
2026-05-03 23:05 55.94892 -3.35760 117 ft 3 kts 172°
2026-05-03 23:06 55.94871 -3.35771 119 ft 1 kts 206°
2026-05-03 23:06 55.94857 -3.35785 117 ft 4 kts 209°
2026-05-03 23:06 55.94844 -3.35797 117 ft 2 kts 207°
2026-05-03 23:06 55.94833 -3.35808 116 ft 0 kts 208°